Weather History for Pocatello, ID

Change the Weather History Date:

Thursday, October 9, 2014

  Actual Average Record
Temperature  
Mean Temperature 54 °F 50 °F  
Max Temperature 73 °F 64 °F 85 °F (1942)
Min Temperature 34 °F 35 °F 18 °F (1968)
Degree Days  
Heating Degree Days 11 15  
Month to date heating degree days 101 125  
Since 1 July heating degree days 279 374  
Cooling Degree Days 0 0  
Month to date cooling degree days 0 0  
Year to date cooling degree days 421 392  
Growing Degree Days 4 (Base 50)    
Moisture  
Dew Point 37 °F    
Average Humidity 61    
Maximum Humidity 92    
Minimum Humidity 29    
Precipitation  
Precipitation 0.00 in 0.03 in 0.22 in (1960)
Month to date precipitation 0.03 0.25  
Year to date precipitation 10.29 9.16  
Snow  
Snow 0.00 in - - ()
Month to date snowfall 0.0  
Since 1 July snowfall 0.0  
Since 1 September snowfall 0.0  
Snow Depth 0.00 in    
Sea Level Pressure  
Sea Level Pressure 29.97 in    
Wind  
Wind Speed 6 mph (SW)    
Max Wind Speed 13 mph    
Max Gust Speed 16 mph    
Visibility 10 miles    
Events      
T = Trace of Precipitation, MM = Missing Value Source: NWS Daily Summary

Daily Weather History Graph

Daily Weather History Graph

Search for Another Location

Airport:

Trip Planner

Search our weather history database for the weather conditions in past years. The results will help you decide how hot, cold, wet, or windy it might be!

Date:

Astronomy

Oct. 09, 2014 Rise Set
Actual Time 7:36 AM MDT 6:57 PM MDT
Civil Twilight 7:08 AM MDT 7:25 PM MDT
Nautical Twilight 6:35 AM MDT 7:58 PM MDT
Astronomical Twilight 6:02 AM MDT 8:31 PM MDT
Moon 7:54 PM MDT (10/9) 8:58 AM MDT (10/9)
Length of Visible Light 12h 17m
Length of Day
11h 20m
Full, 98% of the Moon is Illuminated
Oct 9
Full
Oct 15
Last Quarter
Oct 23
New
Oct 30
First Quarter
Nov 6
Full

Hourly Weather History & Observations

Time (MDT) Temp. Windchill Dew Point Humidity Pressure Visibility Wind Dir Wind Speed Gust Speed Precip Events Conditions
12:53 AM 39.0 °F - 33.1 °F 79% 29.94 in 10.0 mi Calm Calm - N/A   Clear
1:53 AM 37.9 °F 35.5 °F 34.0 °F 86% 29.94 in 10.0 mi NE 3.5 mph - N/A   Clear
2:53 AM 37.9 °F 35.5 °F 33.1 °F 83% 29.94 in 10.0 mi WSW 3.5 mph - N/A   Clear
3:53 AM 35.1 °F 32.2 °F 33.1 °F 92% 29.95 in 10.0 mi South 3.5 mph - N/A   Clear
4:53 AM 36.0 °F 32.1 °F 33.1 °F 89% 29.96 in 10.0 mi SE 4.6 mph - N/A   Clear
5:53 AM 37.9 °F 32.7 °F 35.1 °F 89% 29.94 in 10.0 mi East 6.9 mph - N/A   Clear
6:53 AM 35.1 °F 30.1 °F 34.0 °F 96% 29.98 in 10.0 mi NW 5.8 mph - N/A   Clear
7:53 AM 35.1 °F 32.2 °F 34.0 °F 96% 30.00 in 10.0 mi NNE 3.5 mph - N/A   Clear
8:53 AM 43.0 °F - 36.0 °F 76% 30.01 in 10.0 mi Calm Calm - N/A   Clear
9:53 AM 50.0 °F - 39.9 °F 68% 30.01 in 10.0 mi Calm Calm - N/A   Clear
10:53 AM 55.0 °F - 39.0 °F 55% 30.01 in 10.0 mi Calm Calm - N/A   Clear
11:53 AM 61.0 °F - 37.9 °F 42% 30.01 in 10.0 mi Variable 3.5 mph - N/A   Clear
12:53 PM 64.9 °F - 39.0 °F 39% 30.00 in 10.0 mi SW 8.1 mph - N/A   Partly Cloudy
1:53 PM 66.9 °F - 39.0 °F 36% 29.98 in 10.0 mi SW 6.9 mph - N/A   Clear
2:53 PM 70.0 °F - 39.0 °F 32% 29.95 in 10.0 mi West 6.9 mph - N/A   Clear
3:53 PM 72.0 °F - 39.0 °F 30% 29.94 in 10.0 mi West 8.1 mph - N/A   Partly Cloudy
4:53 PM 72.0 °F - 37.0 °F 28% 29.93 in 10.0 mi West 5.8 mph - N/A   Partly Cloudy
5:53 PM 71.1 °F - 37.9 °F 30% 29.92 in 10.0 mi WSW 6.9 mph - N/A   Partly Cloudy
6:53 PM 63.0 °F - 39.0 °F 41% 29.96 in 10.0 mi SSW 5.8 mph - N/A   Clear
7:53 PM 57.0 °F - 39.0 °F 51% 29.99 in 10.0 mi SSW 9.2 mph - N/A   Clear
8:53 PM 60.1 °F - 41.0 °F 49% 29.97 in 10.0 mi SSW 11.5 mph - N/A   Clear
9:53 PM 55.9 °F - 41.0 °F 57% 29.98 in 10.0 mi SSW 9.2 mph - N/A   Clear
10:53 PM 55.9 °F - 41.0 °F 57% 29.99 in 10.0 mi SSW 10.4 mph - N/A   Clear
11:53 PM 51.1 °F - 41.0 °F 68% 29.99 in 10.0 mi SSW 9.2 mph - N/A   Clear